Погода в Кондопоге

Россия / Республика Карелия     62°12′17″N   34°16′21″E
темп.,
°C
ветер,
м/с
пор.,
м/с
влажн.,
%
обл.,
%
осадки,
мм/ч
давл.,
гПа
погр.,
м
7 марта, вс
вс700:00−6ююв61494100 1.1 9871096
03:00−5ююв61295100 3.8 985778
06:00−7зсз2593100 0.8 984199
09:00−9ссз2592100 0.8 985182
12:00−5всв5895100 0.5 986660
15:00−6св51091100 1.3 989893
18:00−8св61192100 0.6 992955
21:00−10св61290100 1.3 996788
8 марта, пн
пн800:00−11ссв51390100 0.1 1000680
03:00−14ссв51391100 0.1 1004456
06:00−18с5129399 0.0 1007397
09:00−20с5119499 0.0 1010360
12:00−18с489397 0.0 1012393
15:00−16с489188 0.0 1014485
18:00−18с399369 0.0 1015359
21:00−23с389543 0.0 1017177
9 марта, вт
вт900:00−27с23970 0.0 101940
03:00−29с22970 0.0 102021
06:00−31с12980 0.0 102119
09:00−28с11950 0.0 102347
12:00−19ссз11870 0.0 1023287
15:00−16зсз12820 0.0 1024334
18:00−19зсз11910 0.0 102320
21:00−22зсз12910 0.0 102520
10 марта, ср
ср1000:00−23сз129420 0.0 102620
03:00−24сз129610 0.0 102720
06:00−24сз12950 0.0 102720
09:00−21з119018 0.0 102851
12:00−13з238193 0.0 1028236
15:00−10з238174 0.0 1027394
18:00−13зюз229014 0.0 102720
21:00−17зюз229321 0.0 102720
11 марта, чт
чт1100:00−19зюз22930 0.0 102720
03:00−21зюз22900 0.0 102720
06:00−22зюз22850 0.0 102620
09:00−19ююз23890 0.0 1025108
12:00−12ююз26860 0.0 1023357
15:00−8ю47790 0.0 1020905
18:00−10ююв37880 0.0 1017179
21:00−12ююв413900 0.0 1015450